Time,TemperatureF,DewpointF,PressureIn,WindDirection,WindDirectionDegrees,WindSpeedMPH,WindSpeedGustMPH,Humidity,HourlyPrecipIn,Conditions,Clouds,dailyrainin,SoftwareType,DateUTC
2013-08-10 00:01:00,74.6,73.4,30.02,SW,223,0.0,1.0,96,0.00,,CLR,0.00,VWS V14.00,2013-08-10 04:01:00,
2013-08-10 00:06:00,74.3,73.4,30.02,SW,228,1.0,2.0,97,0.00,,CLR,0.00,VWS V14.00,2013-08-10 04:06:00,
2013-08-10 00:11:00,74.2,73.3,30.02,SW,228,0.0,2.0,97,0.00,,CLR,0.00,VWS V14.00,2013-08-10 04:11:00,
2013-08-10 00:16:00,74.0,73.1,30.02,SW,228,1.0,2.0,97,0.00,,CLR,0.00,VWS V14.00,2013-08-10 04:16:00,
2013-08-10 00:21:00,73.9,73.3,30.02,SW,225,1.0,3.0,98,0.00,,CLR,0.00,VWS V14.00,2013-08-10 04:21:00,
2013-08-10 00:26:00,73.8,73.2,30.02,SSW,210,0.0,3.0,98,0.00,,CLR,0.00,VWS V14.00,2013-08-10 04:26:00,
2013-08-10 00:31:00,73.8,73.2,30.02,WSW,239,1.0,2.0,98,0.00,,CLR,0.00,VWS V14.00,2013-08-10 04:31:00,
2013-08-10 00:36:00,73.8,73.2,30.02,WSW,238,0.0,2.0,98,0.00,,CLR,0.00,VWS V14.00,2013-08-10 04:36:00,
2013-08-10 00:41:00,73.7,73.1,30.02,SSW,211,0.0,2.0,98,0.00,,CLR,0.00,VWS V14.00,2013-08-10 04:41:00,
2013-08-10 00:46:00,73.6,73.0,30.02,SSW,202,0.0,3.0,98,0.00,,CLR,0.00,VWS V14.00,2013-08-10 04:46:00,
2013-08-10 00:51:00,73.4,72.8,30.02,SSW,202,0.0,3.0,98,0.00,,CLR,0.00,VWS V14.00,2013-08-10 04:51:00,
2013-08-10 00:56:00,73.3,73.0,30.02,SSW,202,0.0,3.0,99,0.00,,CLR,0.00,VWS V14.00,2013-08-10 04:56:00,
2013-08-10 01:01:00,73.2,72.9,30.02,SSW,202,0.0,0.0,99,0.00,,CLR,0.00,VWS V14.00,2013-08-10 05:01:00,
2013-08-10 01:06:00,73.2,72.9,30.02,SSW,202,0.0,0.0,99,0.00,,CLR,0.00,VWS V14.00,2013-08-10 05:06:00,
2013-08-10 01:11:00,73.1,72.8,30.03,SSW,202,0.0,1.0,99,0.00,,CLR,0.00,VWS V14.00,2013-08-10 05:11:00,
2013-08-10 01:16:00,73.0,72.7,30.03,SSW,202,0.0,1.0,99,0.00,,CLR,0.00,VWS V14.00,2013-08-10 05:16:00,
2013-08-10 01:21:00,72.9,72.6,30.03,SSW,202,0.0,1.0,99,0.00,,CLR,0.00,VWS V14.00,2013-08-10 05:21:00,
2013-08-10 01:26:00,72.9,72.6,30.03,SSW,202,0.0,1.0,99,0.00,,CLR,0.00,VWS V14.00,2013-08-10 05:26:00,
2013-08-10 01:31:00,72.8,72.5,30.03,SSW,202,0.0,0.0,99,0.00,,CLR,0.00,VWS V14.00,2013-08-10 05:31:00,
2013-08-10 01:36:00,72.8,72.5,30.02,SSW,201,0.0,0.0,99,0.00,,CLR,0.00,VWS V14.00,2013-08-10 05:36:00,
2013-08-10 01:41:00,72.8,72.8,30.02,SSW,201,0.0,0.0,100,0.00,,CLR,0.00,VWS V14.00,2013-08-10 05:41:00,
2013-08-10 01:46:00,72.8,72.8,30.02,SSW,201,0.0,0.0,100,0.00,,CLR,0.00,VWS V14.00,2013-08-10 05:46:00,
2013-08-10 01:51:00,72.8,72.8,30.02,SSW,201,0.0,0.0,100,0.00,,CLR,0.00,VWS V14.00,2013-08-10 05:51:00,
2013-08-10 01:56:00,72.8,72.8,30.02,SSW,201,0.0,0.0,100,0.00,,CLR,0.00,VWS V14.00,2013-08-10 05:56:00,
2013-08-10 02:01:00,72.8,72.8,30.02,SSW,201,0.0,0.0,100,0.00,,FEW110,0.00,VWS V14.00,2013-08-10 06:01:00,
2013-08-10 02:06:00,72.8,72.8,30.02,SSW,201,0.0,0.0,100,0.00,,FEW110,0.00,VWS V14.00,2013-08-10 06:06:00,
2013-08-10 02:11:00,72.8,72.8,30.02,SSW,202,0.0,1.0,100,0.00,,FEW110,0.00,VWS V14.00,2013-08-10 06:11:00,
2013-08-10 02:16:00,72.8,72.8,30.02,SSW,198,0.0,1.0,100,0.00,,FEW110,0.00,VWS V14.00,2013-08-10 06:16:00,
2013-08-10 02:21:00,72.8,72.8,30.02,SSW,198,0.0,1.0,100,0.00,,FEW110,0.00,VWS V14.00,2013-08-10 06:21:00,
2013-08-10 02:26:00,72.8,72.8,30.02,SSW,200,0.0,1.0,100,0.00,,FEW110,0.00,VWS V14.00,2013-08-10 06:26:00,
2013-08-10 02:31:00,72.9,72.9,30.02,South,185,0.0,0.0,100,0.00,,FEW110,0.00,VWS V14.00,2013-08-10 06:31:00,
2013-08-10 02:36:00,72.9,72.6,30.02,SSW,210,0.0,1.0,99,0.00,,FEW110,0.00,VWS V14.00,2013-08-10 06:36:00,
2013-08-10 02:41:00,72.9,72.6,30.01,SSW,207,0.0,1.0,99,0.00,,FEW110,0.00,VWS V14.00,2013-08-10 06:41:00,
2013-08-10 02:46:00,72.9,72.6,30.01,SSW,211,0.0,1.0,99,0.00,,FEW110,0.00,VWS V14.00,2013-08-10 06:46:00,
2013-08-10 02:51:00,72.9,72.6,30.01,SSW,200,0.0,1.0,99,0.00,,FEW110,0.00,VWS V14.00,2013-08-10 06:51:00,
2013-08-10 02:56:00,72.9,72.6,30.01,SSW,195,0.0,1.0,99,0.00,,FEW110,0.00,VWS V14.00,2013-08-10 06:56:00,
2013-08-10 03:01:00,72.9,72.6,30.01,South,179,0.0,1.0,99,0.00,,FEW120,0.00,VWS V14.00,2013-08-10 07:01:00,
2013-08-10 03:06:00,72.9,72.6,30.01,South,175,0.0,1.0,99,0.00,,FEW120,0.00,VWS V14.00,2013-08-10 07:06:00,
2013-08-10 03:11:00,72.9,72.6,30.01,South,175,0.0,1.0,99,0.00,,FEW120,0.00,VWS V14.00,2013-08-10 07:11:00,
2013-08-10 03:16:00,72.8,72.5,30.01,South,174,0.0,1.0,99,0.00,,FEW120,0.00,VWS V14.00,2013-08-10 07:16:00,
2013-08-10 03:21:00,72.8,72.5,30.01,South,174,0.0,1.0,99,0.00,,FEW120,0.00,VWS V14.00,2013-08-10 07:21:00,
2013-08-10 03:26:00,72.8,72.5,30.01,South,181,0.0,1.0,99,0.00,,FEW120,0.00,VWS V14.00,2013-08-10 07:26:00,
2013-08-10 03:31:00,72.8,72.5,30.01,South,182,0.0,0.0,99,0.00,,FEW120,0.00,VWS V14.00,2013-08-10 07:31:00,
2013-08-10 03:36:00,72.8,72.5,30.02,South,186,0.0,1.0,99,0.00,,FEW120,0.00,VWS V14.00,2013-08-10 07:36:00,
2013-08-10 03:41:00,72.8,72.5,30.02,South,176,0.0,1.0,99,0.00,,FEW120,0.00,VWS V14.00,2013-08-10 07:41:00,
2013-08-10 03:46:00,72.8,72.8,30.01,SSW,208,0.0,1.0,100,0.00,,FEW120,0.00,VWS V14.00,2013-08-10 07:46:00,
2013-08-10 03:51:00,72.8,72.5,30.02,SSW,209,0.0,1.0,99,0.00,,FEW120,0.00,VWS V14.00,2013-08-10 07:51:00,
2013-08-10 03:56:00,72.8,72.8,30.02,SSW,199,0.0,1.0,100,0.00,,FEW120,0.00,VWS V14.00,2013-08-10 07:56:00,
2013-08-10 04:01:00,72.9,72.9,30.02,South,182,1.0,1.0,100,0.00,,CLR,0.00,VWS V14.00,2013-08-10 08:01:00,
2013-08-10 04:06:00,72.9,72.9,30.02,South,182,0.0,1.0,100,0.00,,CLR,0.00,VWS V14.00,2013-08-10 08:06:00,
2013-08-10 04:11:00,72.9,72.9,30.02,South,182,0.0,1.0,100,0.00,,CLR,0.00,VWS V14.00,2013-08-10 08:11:00,
2013-08-10 04:16:00,72.9,72.9,30.02,South,180,0.0,1.0,100,0.00,,CLR,0.00,VWS V14.00,2013-08-10 08:16:00,
2013-08-10 04:21:00,72.9,72.9,30.02,South,170,0.0,1.0,100,0.00,,CLR,0.00,VWS V14.00,2013-08-10 08:21:00,
2013-08-10 04:26:00,73.0,73.0,30.02,SSE,152,0.0,1.0,100,0.00,,CLR,0.00,VWS V14.00,2013-08-10 08:26:00,
2013-08-10 04:31:00,73.0,72.7,30.02,SSE,153,0.0,0.0,99,0.00,,CLR,0.00,VWS V14.00,2013-08-10 08:31:00,
2013-08-10 04:36:00,73.0,72.7,30.02,South,182,0.0,0.0,99,0.00,,CLR,0.00,VWS V14.00,2013-08-10 08:36:00,
2013-08-10 04:41:00,72.9,72.9,30.02,South,172,0.0,1.0,100,0.00,,CLR,0.00,VWS V14.00,2013-08-10 08:41:00,
2013-08-10 04:46:00,72.9,72.9,30.02,South,172,0.0,1.0,100,0.00,,CLR,0.00,VWS V14.00,2013-08-10 08:46:00,
2013-08-10 04:51:00,72.9,72.9,30.02,South,182,0.0,1.0,100,0.00,,CLR,0.00,VWS V14.00,2013-08-10 08:51:00,
2013-08-10 04:57:00,72.9,72.9,30.02,South,172,0.0,1.0,100,0.00,,CLR,0.00,VWS V14.00,2013-08-10 08:57:00,
2013-08-10 05:02:00,72.9,72.9,30.02,South,169,0.0,2.0,100,0.00,,CLR,0.00,VWS V14.00,2013-08-10 09:02:00,
2013-08-10 05:07:00,72.8,72.8,30.02,South,180,0.0,2.0,100,0.00,,CLR,0.00,VWS V14.00,2013-08-10 09:07:00,
2013-08-10 05:12:00,72.8,72.8,30.02,South,170,2.0,3.0,100,0.00,,CLR,0.00,VWS V14.00,2013-08-10 09:12:00,
2013-08-10 05:17:00,72.8,72.8,30.02,SSW,213,3.0,4.0,100,0.00,,CLR,0.00,VWS V14.00,2013-08-10 09:17:00,
2013-08-10 05:22:00,72.7,72.7,30.02,SW,222,0.0,4.0,100,0.00,,CLR,0.00,VWS V14.00,2013-08-10 09:22:00,
2013-08-10 05:27:00,72.7,72.7,30.02,SW,225,0.0,5.0,100,0.00,,CLR,0.00,VWS V14.00,2013-08-10 09:27:00,
2013-08-10 05:32:00,72.7,72.7,30.02,SW,219,3.0,4.0,100,0.00,,CLR,0.00,VWS V14.00,2013-08-10 09:32:00,
2013-08-10 05:37:00,72.7,72.7,30.02,SSW,195,0.0,4.0,100,0.00,,CLR,0.00,VWS V14.00,2013-08-10 09:37:00,
2013-08-10 05:42:00,72.8,72.8,30.02,SW,220,2.0,5.0,100,0.00,,CLR,0.00,VWS V14.00,2013-08-10 09:42:00,
2013-08-10 05:47:00,72.8,72.8,30.02,SW,218,0.0,5.0,100,0.00,,CLR,0.00,VWS V14.00,2013-08-10 09:47:00,
2013-08-10 05:52:00,72.8,72.8,30.02,SSW,198,0.0,5.0,100,0.00,,CLR,0.00,VWS V14.00,2013-08-10 09:52:00,
2013-08-10 05:57:00,72.8,72.8,30.02,SW,221,0.0,5.0,100,0.00,,CLR,0.00,VWS V14.00,2013-08-10 09:57:00,
2013-08-10 06:02:00,72.8,72.8,30.03,SW,214,1.0,3.0,100,0.00,,CLR,0.00,VWS V14.00,2013-08-10 10:02:00,
2013-08-10 06:07:00,72.8,72.8,30.03,SW,225,1.0,6.0,100,0.00,,CLR,0.00,VWS V14.00,2013-08-10 10:07:00,
2013-08-10 06:12:00,72.8,72.8,30.03,SW,221,2.0,6.0,100,0.00,,CLR,0.00,VWS V14.00,2013-08-10 10:12:00,
2013-08-10 06:17:00,72.9,72.9,30.03,WSW,246,3.0,6.0,100,0.00,,CLR,0.00,VWS V14.00,2013-08-10 10:17:00,
2013-08-10 06:22:00,72.9,72.9,30.03,SW,234,3.0,7.0,100,0.00,,CLR,0.00,VWS V14.00,2013-08-10 10:22:00,
2013-08-10 06:27:00,73.0,73.0,30.03,WSW,238,2.0,7.0,100,0.00,,CLR,0.00,VWS V14.00,2013-08-10 10:27:00,
2013-08-10 06:32:00,73.0,73.0,30.03,WSW,248,0.0,0.0,100,0.00,,CLR,0.00,VWS V14.00,2013-08-10 10:32:00,
2013-08-10 06:37:00,73.1,73.1,30.03,SSW,207,4.0,4.0,100,0.00,,CLR,0.00,VWS V14.00,2013-08-10 10:37:00,
2013-08-10 06:42:00,73.1,73.1,30.03,SSW,195,0.0,4.0,100,0.00,,CLR,0.00,VWS V14.00,2013-08-10 10:42:00,
2013-08-10 06:47:00,73.2,73.2,30.03,South,181,0.0,4.0,100,0.00,,CLR,0.00,VWS V14.00,2013-08-10 10:47:00,
2013-08-10 06:52:00,73.2,73.2,30.03,South,178,0.0,4.0,100,0.00,,CLR,0.00,VWS V14.00,2013-08-10 10:52:00,
2013-08-10 06:57:00,73.2,73.2,30.04,SSE,166,0.0,4.0,100,0.00,,CLR,0.00,VWS V14.00,2013-08-10 10:57:00,
2013-08-10 07:02:00,73.3,73.3,30.04,SSE,164,0.0,0.0,100,0.00,,CLR,0.00,VWS V14.00,2013-08-10 11:02:00,
2013-08-10 07:07:00,73.3,73.3,30.04,SSE,151,0.0,0.0,100,0.00,,CLR,0.00,VWS V14.00,2013-08-10 11:07:00,
2013-08-10 07:12:00,73.3,73.3,30.04,SSE,153,0.0,0.0,100,0.00,,CLR,0.00,VWS V14.00,2013-08-10 11:12:00,
2013-08-10 07:17:00,73.3,73.3,30.05,South,178,0.0,0.0,100,0.00,,CLR,0.00,VWS V14.00,2013-08-10 11:17:00,
2013-08-10 07:22:00,73.3,73.0,30.05,South,189,0.0,2.0,99,0.00,,CLR,0.00,VWS V14.00,2013-08-10 11:22:00,
2013-08-10 07:27:00,73.4,73.1,30.05,South,189,0.0,2.0,99,0.00,,CLR,0.00,VWS V14.00,2013-08-10 11:27:00,
2013-08-10 07:32:00,73.5,73.2,30.05,South,189,0.0,2.0,99,0.00,,CLR,0.00,VWS V14.00,2013-08-10 11:32:00,
2013-08-10 07:37:00,73.6,73.3,30.05,South,184,0.0,2.0,99,0.00,,CLR,0.00,VWS V14.00,2013-08-10 11:37:00,
2013-08-10 07:42:00,73.7,73.4,30.05,South,179,0.0,2.0,99,0.00,,CLR,0.00,VWS V14.00,2013-08-10 11:42:00,
2013-08-10 07:47:00,73.8,73.5,30.06,SSE,159,0.0,2.0,99,0.00,,CLR,0.00,VWS V14.00,2013-08-10 11:47:00,
2013-08-10 07:52:00,74.0,73.7,30.06,SSE,159,0.0,2.0,99,0.00,,CLR,0.00,VWS V14.00,2013-08-10 11:52:00,
2013-08-10 07:57:00,74.2,73.9,30.06,SSW,202,0.0,3.0,99,0.00,,CLR,0.00,VWS V14.00,2013-08-10 11:57:00,
2013-08-10 08:02:00,74.3,74.0,30.06,SSE,163,0.0,0.0,99,0.00,,CLR,0.00,VWS V14.00,2013-08-10 12:02:00,
2013-08-10 08:07:00,74.5,73.9,30.06,South,171,0.0,2.0,98,0.00,,CLR,0.00,VWS V14.00,2013-08-10 12:07:00,
2013-08-10 08:12:00,74.6,74.0,30.06,South,186,0.0,3.0,98,0.00,,CLR,0.00,VWS V14.00,2013-08-10 12:12:00,
2013-08-10 08:17:00,74.9,74.3,30.06,SSW,213,3.0,4.0,98,0.00,,CLR,0.00,VWS V14.00,2013-08-10 12:17:00,
2013-08-10 08:22:00,75.1,74.5,30.06,SSW,213,0.0,4.0,98,0.00,,CLR,0.00,VWS V14.00,2013-08-10 12:22:00,
2013-08-10 08:27:00,75.3,74.4,30.06,SW,226,0.0,4.0,97,0.00,,CLR,0.00,VWS V14.00,2013-08-10 12:27:00,
2013-08-10 08:32:00,75.5,74.6,30.06,SSW,207,1.0,4.0,97,0.00,,CLR,0.00,VWS V14.00,2013-08-10 12:32:00,
2013-08-10 08:37:00,75.8,74.6,30.06,SW,229,3.0,6.0,96,0.00,,CLR,0.00,VWS V14.00,2013-08-10 12:37:00,
2013-08-10 08:42:00,76.4,74.6,30.06,SSW,207,4.0,7.0,94,0.00,,CLR,0.00,VWS V14.00,2013-08-10 12:42:00,
2013-08-10 08:47:00,76.9,75.1,30.06,WSW,240,3.0,7.0,94,0.00,,CLR,0.00,VWS V14.00,2013-08-10 12:47:00,
2013-08-10 08:52:00,77.5,75.0,30.06,SW,219,2.0,7.0,92,0.00,,CLR,0.00,VWS V14.00,2013-08-10 12:52:00,
2013-08-10 08:57:00,78.0,75.2,30.06,SW,229,3.0,7.0,91,0.00,,CLR,0.00,VWS V14.00,2013-08-10 12:57:00,
2013-08-10 09:02:00,78.5,75.0,30.06,SW,235,3.0,6.0,89,0.00,,CLR,0.00,VWS V14.00,2013-08-10 13:02:00,
2013-08-10 09:07:00,78.8,75.6,30.06,WSW,238,3.0,7.0,90,0.00,,CLR,0.00,VWS V14.00,2013-08-10 13:07:00,
2013-08-10 09:12:00,79.2,75.3,30.06,SW,219,3.0,7.0,88,0.00,,CLR,0.00,VWS V14.00,2013-08-10 13:12:00,
2013-08-10 09:17:00,79.6,75.7,30.06,SSW,204,5.0,7.0,88,0.00,,CLR,0.00,VWS V14.00,2013-08-10 13:17:00,
2013-08-10 09:22:00,79.9,75.7,30.06,SSW,211,4.0,7.0,87,0.00,,CLR,0.00,VWS V14.00,2013-08-10 13:22:00,
2013-08-10 09:27:00,80.2,75.6,30.06,WSW,244,3.0,7.0,86,0.00,,CLR,0.00,VWS V14.00,2013-08-10 13:27:00,
2013-08-10 09:33:00,80.3,75.4,30.06,WSW,237,4.0,6.0,85,0.00,,CLR,0.00,VWS V14.00,2013-08-10 13:33:00,
2013-08-10 09:38:00,80.8,75.5,30.06,SW,227,7.0,7.0,84,0.00,,CLR,0.00,VWS V14.00,2013-08-10 13:38:00,
2013-08-10 09:43:00,81.2,75.6,30.06,SSW,206,2.0,7.0,83,0.00,,CLR,0.00,VWS V14.00,2013-08-10 13:43:00,
2013-08-10 09:48:00,81.3,75.3,30.06,WSW,238,3.0,7.0,82,0.00,,CLR,0.00,VWS V14.00,2013-08-10 13:48:00,
2013-08-10 09:53:00,81.4,75.4,30.06,SW,229,3.0,7.0,82,0.00,,CLR,0.00,VWS V14.00,2013-08-10 13:53:00,
2013-08-10 09:58:00,81.6,75.9,30.06,SW,229,3.0,7.0,83,0.00,,CLR,0.00,VWS V14.00,2013-08-10 13:58:00,
2013-08-10 10:03:00,81.8,76.5,30.06,SSW,206,3.0,6.0,84,0.00,,CLR,0.00,VWS V14.00,2013-08-10 14:03:00,
2013-08-10 10:08:00,81.9,75.9,30.06,SW,231,3.0,6.0,82,0.00,,CLR,0.00,VWS V14.00,2013-08-10 14:08:00,
2013-08-10 10:13:00,82.0,76.0,30.06,SW,223,3.0,6.0,82,0.00,,CLR,0.00,VWS V14.00,2013-08-10 14:13:00,
2013-08-10 10:18:00,82.2,75.8,30.06,West,279,4.0,6.0,81,0.00,,CLR,0.00,VWS V14.00,2013-08-10 14:18:00,
2013-08-10 10:23:00,82.3,76.3,30.06,South,188,6.0,6.0,82,0.00,,CLR,0.00,VWS V14.00,2013-08-10 14:23:00,
2013-08-10 10:28:00,82.3,75.9,30.06,WSW,239,3.0,7.0,81,0.00,,CLR,0.00,VWS V14.00,2013-08-10 14:28:00,
2013-08-10 10:33:00,82.3,76.3,30.06,SSW,209,3.0,6.0,82,0.00,,CLR,0.00,VWS V14.00,2013-08-10 14:33:00,
2013-08-10 10:38:00,82.6,76.6,30.06,SW,222,3.0,6.0,82,0.00,,CLR,0.00,VWS V14.00,2013-08-10 14:38:00,
2013-08-10 10:43:00,82.8,77.1,30.07,SSW,204,3.0,6.0,83,0.00,,CLR,0.00,VWS V14.00,2013-08-10 14:43:00,
2013-08-10 10:48:00,83.0,76.9,30.07,SSW,198,3.0,6.0,82,0.00,,CLR,0.00,VWS V14.00,2013-08-10 14:48:00,
2013-08-10 10:53:00,83.1,77.0,30.06,SSW,213,2.0,6.0,82,0.00,,CLR,0.00,VWS V14.00,2013-08-10 14:53:00,
2013-08-10 10:58:00,83.3,77.2,30.06,SW,219,5.0,6.0,82,0.00,,CLR,0.00,VWS V14.00,2013-08-10 14:58:00,
2013-08-10 11:03:00,84.1,76.5,30.06,WNW,292,0.0,6.0,78,0.00,,CLR,0.00,VWS V14.00,2013-08-10 15:03:00,
2013-08-10 11:08:00,84.8,77.2,30.07,WNW,286,3.0,8.0,78,0.00,,CLR,0.00,VWS V14.00,2013-08-10 15:08:00,
2013-08-10 11:13:00,85.3,76.5,30.07,North,9,1.0,9.0,75,0.00,,CLR,0.00,VWS V14.00,2013-08-10 15:13:00,
2013-08-10 11:18:00,85.5,77.5,30.07,West,262,0.0,9.0,77,0.00,,CLR,0.00,VWS V14.00,2013-08-10 15:18:00,
2013-08-10 11:23:00,85.5,77.1,30.07,NW,306,2.0,9.0,76,0.00,,CLR,0.00,VWS V14.00,2013-08-10 15:23:00,
2013-08-10 11:28:00,85.8,76.2,30.07,WSW,244,5.0,9.0,73,0.00,,CLR,0.00,VWS V14.00,2013-08-10 15:28:00,
2013-08-10 11:33:00,86.5,76.0,30.07,West,261,8.0,9.0,71,0.00,,CLR,0.00,VWS V14.00,2013-08-10 15:33:00,
2013-08-10 11:38:00,86.2,76.1,30.08,WSW,252,4.0,11.0,72,0.00,,CLR,0.00,VWS V14.00,2013-08-10 15:38:00,
2013-08-10 11:43:00,85.4,75.3,30.08,West,275,5.0,11.0,72,0.00,,CLR,0.00,VWS V14.00,2013-08-10 15:43:00,
2013-08-10 11:48:00,84.8,75.2,30.08,West,263,8.0,11.0,73,0.00,,CLR,0.00,VWS V14.00,2013-08-10 15:48:00,
2013-08-10 11:53:00,84.7,77.1,30.08,WSW,250,5.0,11.0,78,0.00,,CLR,0.00,VWS V14.00,2013-08-10 15:53:00,
2013-08-10 11:58:00,85.5,76.3,30.07,West,259,2.0,11.0,74,0.00,,CLR,0.00,VWS V14.00,2013-08-10 15:58:00,
2013-08-10 12:03:00,86.3,77.4,30.07,West,260,6.0,8.0,75,0.00,,FEW110,0.00,VWS V14.00,2013-08-10 16:03:00,
2013-08-10 12:08:00,86.5,76.4,30.07,WSW,246,9.0,10.0,72,0.00,,FEW110,0.00,VWS V14.00,2013-08-10 16:08:00,
2013-08-10 12:13:00,86.2,74.4,30.07,SW,227,3.0,10.0,68,0.00,,FEW110,0.00,VWS V14.00,2013-08-10 16:13:00,
2013-08-10 12:18:00,86.1,74.8,30.07,WNW,286,5.0,10.0,69,0.00,,FEW110,0.00,VWS V14.00,2013-08-10 16:18:00,
2013-08-10 12:23:00,86.0,75.5,30.06,SW,236,5.0,10.0,71,0.00,,FEW110,0.00,VWS V14.00,2013-08-10 16:23:00,
2013-08-10 12:28:00,86.0,75.9,30.06,West,275,2.0,10.0,72,0.00,,FEW110,0.00,VWS V14.00,2013-08-10 16:28:00,
2013-08-10 12:33:00,86.1,74.8,30.06,WSW,244,3.0,7.0,69,0.00,,FEW110,0.00,VWS V14.00,2013-08-10 16:33:00,
2013-08-10 12:38:00,86.7,77.0,30.06,West,274,2.0,9.0,73,0.00,,FEW110,0.00,VWS V14.00,2013-08-10 16:38:00,
2013-08-10 12:43:00,86.9,76.8,30.05,WSW,240,4.0,9.0,72,0.00,,FEW110,0.00,VWS V14.00,2013-08-10 16:43:00,
2013-08-10 12:48:00,86.9,75.9,30.05,North,350,1.0,9.0,70,0.00,,FEW110,0.00,VWS V14.00,2013-08-10 16:48:00,
2013-08-10 12:53:00,87.0,76.0,30.04,West,279,2.0,9.0,70,0.00,,FEW110,0.00,VWS V14.00,2013-08-10 16:53:00,
2013-08-10 12:58:00,87.7,76.3,30.04,WNW,292,2.0,9.0,69,0.00,,FEW110,0.00,VWS V14.00,2013-08-10 16:58:00,
2013-08-10 13:03:00,87.3,77.2,30.05,West,264,3.0,6.0,72,0.00,,BKN110,0.00,VWS V14.00,2013-08-10 17:03:00,
2013-08-10 13:08:00,87.5,76.5,30.04,WSW,250,3.0,6.0,70,0.00,,BKN110,0.00,VWS V14.00,2013-08-10 17:08:00,
2013-08-10 13:13:00,87.5,76.9,30.04,SW,217,4.0,6.0,71,0.00,,,0.00,VWS V14.00,2013-08-10 17:13:00,
2013-08-10 13:18:00,87.7,76.7,30.04,SW,230,4.0,6.0,70,0.00,,,0.00,VWS V14.00,2013-08-10 17:18:00,
2013-08-10 13:23:00,88.2,77.6,30.04,SW,223,4.0,9.0,71,0.00,,,0.00,VWS V14.00,2013-08-10 17:23:00,
2013-08-10 13:28:00,88.3,76.8,30.04,WNW,290,0.0,9.0,69,0.00,,,0.00,VWS V14.00,2013-08-10 17:28:00,
2013-08-10 13:30:00,88.4,76.5,30.04,WSW,253,2.0,9.0,68,0.00,,,0.00,VWS V14.00,2013-08-10 17:30:00,
2013-08-10 13:33:00,88.6,77.1,30.04,West,278,4.0,4.0,69,0.00,,,0.00,VWS V14.00,2013-08-10 17:33:00,
2013-08-10 13:38:00,88.4,77.4,30.03,WSW,244,5.0,9.0,70,0.00,,,0.00,VWS V14.00,2013-08-10 17:38:00,
2013-08-10 13:43:00,89.4,77.9,30.03,SSW,207,8.0,12.0,69,0.00,,,0.00,VWS V14.00,2013-08-10 17:43:00,
2013-08-10 13:48:00,88.8,76.4,30.04,SW,222,6.0,13.0,67,0.00,,,0.00,VWS V14.00,2013-08-10 17:48:00,
2013-08-10 13:53:00,87.9,76.9,30.04,SSW,211,7.0,13.0,70,0.00,,,0.00,VWS V14.00,2013-08-10 17:53:00,
2013-08-10 13:58:00,87.4,76.8,30.03,SW,225,6.0,13.0,71,0.00,,,0.00,VWS V14.00,2013-08-10 17:58:00,
2013-08-10 14:00:00,87.2,76.7,30.03,West,259,2.0,13.0,71,0.00,,,0.00,VWS V14.00,2013-08-10 18:00:00,
2013-08-10 14:03:00,86.9,76.4,30.04,SW,227,5.0,9.0,71,0.00,,FEW055,0.00,VWS V14.00,2013-08-10 18:03:00,
2013-08-10 14:08:00,86.1,78.1,30.04,West,260,3.0,9.0,77,0.00,,FEW055,0.00,VWS V14.00,2013-08-10 18:08:00,
2013-08-10 14:13:00,84.9,78.0,30.03,West,265,5.0,9.0,80,0.01,,FEW055,0.01,VWS V14.00,2013-08-10 18:13:00,
2013-08-10 14:18:00,83.7,76.9,30.03,West,277,2.0,9.0,80,0.01,,FEW055,0.01,VWS V14.00,2013-08-10 18:18:00,
2013-08-10 14:23:00,83.3,78.0,30.03,WSW,247,2.0,9.0,84,0.01,,FEW055,0.01,VWS V14.00,2013-08-10 18:23:00,
2013-08-10 14:28:00,83.7,79.4,30.03,SW,235,4.0,9.0,87,0.01,,FEW055,0.01,VWS V14.00,2013-08-10 18:28:00,
2013-08-10 14:30:00,83.9,80.0,30.03,SW,233,3.0,9.0,88,0.01,,,0.01,VWS V14.00,2013-08-10 18:30:00,
2013-08-10 14:33:00,84.3,79.3,30.03,SW,227,3.0,4.0,85,0.01,,FEW055,0.01,VWS V14.00,2013-08-10 18:33:00,
2013-08-10 14:38:00,85.0,78.5,30.02,WSW,242,2.0,4.0,81,0.01,,FEW055,0.01,VWS V14.00,2013-08-10 18:38:00,
2013-08-10 14:44:00,85.7,79.2,30.02,WSW,240,3.0,5.0,81,0.01,,FEW055,0.01,VWS V14.00,2013-08-10 18:44:00,
2013-08-10 14:49:00,85.9,79.0,30.02,West,260,2.0,5.0,80,0.01,,FEW055,0.01,VWS V14.00,2013-08-10 18:49:00,
2013-08-10 14:54:00,85.7,78.1,30.02,West,271,4.0,5.0,78,0.01,,FEW055,0.01,VWS V14.00,2013-08-10 18:54:00,
2013-08-10 14:59:00,85.7,77.7,30.02,West,269,1.0,5.0,77,0.01,,FEW055,0.01,VWS V14.00,2013-08-10 18:59:00,
2013-08-10 15:00:00,85.7,78.4,30.02,West,269,0.0,5.0,79,0.01,,,0.01,VWS V14.00,2013-08-10 19:00:00,
2013-08-10 15:04:00,85.9,78.2,30.02,South,182,2.0,3.0,78,0.01,,BKN055,0.01,VWS V14.00,2013-08-10 19:04:00,
2013-08-10 15:09:00,86.0,78.3,30.02,West,267,2.0,4.0,78,0.01,,BKN055,0.01,VWS V14.00,2013-08-10 19:09:00,
2013-08-10 15:14:00,86.0,78.7,30.02,SW,217,3.0,4.0,79,0.01,,BKN055,0.01,VWS V14.00,2013-08-10 19:14:00,
2013-08-10 15:19:00,86.2,78.5,30.02,SSW,207,1.0,4.0,78,0.01,,BKN055,0.01,VWS V14.00,2013-08-10 19:19:00,
2013-08-10 15:24:00,86.1,78.8,30.02,West,261,1.0,4.0,79,0.01,,BKN055,0.01,VWS V14.00,2013-08-10 19:24:00,
2013-08-10 15:29:00,85.9,79.0,30.02,West,263,0.0,4.0,80,0.01,,BKN055,0.01,VWS V14.00,2013-08-10 19:29:00,
2013-08-10 15:30:00,85.8,79.3,30.02,West,263,0.0,4.0,81,0.01,,,0.01,VWS V14.00,2013-08-10 19:30:00,
2013-08-10 15:34:00,85.5,79.8,30.02,West,263,0.0,1.0,83,0.00,,BKN055,0.01,VWS V14.00,2013-08-10 19:34:00,
2013-08-10 15:43:00,82.1,76.8,30.03,NW,313,2.0,11.0,84,0.05,,BKN055,0.06,VWS V14.00,2013-08-10 19:43:00,
2013-08-10 16:00:00,73.9,72.1,30.05,SSW,197,3.0,11.0,94,0.52,,,0.53,VWS V14.00,2013-08-10 20:00:00,
2013-08-10 16:08:00,73.0,72.1,30.04,WSW,253,0.0,7.0,97,0.61,,BKN055,0.62,VWS V14.00,2013-08-10 20:08:00,
2013-08-10 16:13:00,72.9,72.6,30.04,SSW,207,2.0,7.0,99,0.62,,BKN055,0.63,VWS V14.00,2013-08-10 20:13:00,
2013-08-10 16:30:00,73.2,72.9,30.04,SSE,158,2.0,7.0,99,0.62,,,0.63,VWS V14.00,2013-08-10 20:30:00,
2013-08-10 17:00:00,77.8,77.5,30.02,SW,225,1.0,4.0,99,0.63,,,0.64,VWS V14.00,2013-08-10 21:00:00,
2013-08-10 17:30:00,81.5,77.9,30.01,SSW,202,3.0,6.0,89,0.11,,,0.64,VWS V14.00,2013-08-10 21:30:00,
2013-08-10 18:00:00,81.2,78.0,30.03,SW,225,3.0,7.0,90,0.01,,,0.64,VWS V14.00,2013-08-10 22:00:00,
2013-08-10 18:30:00,79.6,78.1,30.03,SSW,202,3.0,8.0,95,0.00,,,0.64,VWS V14.00,2013-08-10 22:30:00,
2013-08-10 19:00:00,78.7,76.8,30.03,SSW,202,4.0,7.0,94,0.00,,,0.64,VWS V14.00,2013-08-10 23:00:00,
2013-08-10 19:30:00,77.7,76.2,30.03,SSW,202,4.0,8.0,95,0.00,,,0.64,VWS V14.00,2013-08-10 23:30:00,
2013-08-10 20:00:00,76.9,75.4,30.03,SW,225,4.0,9.0,95,0.00,,,0.64,VWS V14.00,2013-08-11 00:00:00,
2013-08-10 20:30:00,76.0,74.8,30.04,SSW,202,3.0,8.0,96,0.00,,,0.64,VWS V14.00,2013-08-11 00:30:00,
2013-08-10 21:00:00,75.5,74.6,30.04,SW,225,3.0,7.0,97,0.00,,,0.64,VWS V14.00,2013-08-11 01:00:00,
2013-08-10 21:30:00,75.0,74.4,30.05,SSW,202,2.0,6.0,98,0.00,,,0.64,VWS V14.00,2013-08-11 01:30:00,
2013-08-10 22:00:00,74.5,74.2,30.06,SW,225,2.0,5.0,99,0.00,,,0.64,VWS V14.00,2013-08-11 02:00:00,
2013-08-10 22:30:00,74.0,73.7,30.06,SW,225,0.0,3.0,99,0.00,,,0.64,VWS V14.00,2013-08-11 02:30:00,
2013-08-10 23:00:00,73.5,73.5,30.07,SSW,202,0.0,3.0,100,0.00,,,0.64,VWS V14.00,2013-08-11 03:00:00,
2013-08-10 23:30:00,73.0,73.0,30.07,SSW,202,0.0,1.0,100,0.00,,,0.64,VWS V14.00,2013-08-11 03:30:00,